CW0880 Weather Reports


Display with metric or nautical units.
time (UTC)temp
F
wind
direction
speed
MPH
gust
MPH
rain 1hr
in
rain 24hr
in
rain mn
in
humidity
%
barometer
mb
20260905132444 75 29 3.0 8.0 0.00 0.00 0.00 62 1010.3
20260905130941 75 321 4.0 8.0 0.00 0.00 0.00 64 1010.5
20260905125441 74 327 4.0 12.0 0.00 0.00 0.00 64 1010.5
20260905123940 74 4 7.0 7.0 0.00 0.00 0.00 64 1010.8
20260905122436 74 271 5.0 11.0 0.00 0.00 0.00 64 1011.0
20260905120932 74 29 4.0 8.0 0.00 0.00 0.00 64 1010.9
20260905115427 74 309 1.0 7.0 0.00 0.00 0.00 63 1011.0
20260905113927 73 4 6.0 6.0 0.00 0.00 0.00 65 1010.6
20260905112424 73 327 3.0 9.0 0.00 0.00 0.00 64 1010.6
20260905110920 73 16 4.0 5.0 0.00 0.00 0.00 64 1010.5
20260905105414 73 139 2.0 8.0 0.00 0.00 0.00 65 1010.2
20260905103909 73 6 4.0 6.0 0.00 0.00 0.00 65 1009.9
20260905102409 73 5 2.0 7.0 0.00 0.00 0.00 64 1009.8
20260905100908 73 63 2.0 4.0 0.00 0.00 0.00 64 1009.8
20260905095404 74 350 3.0 4.0 0.00 0.00 0.00 64 1009.9
20260905093904 74 354 3.0 6.0 0.00 0.00 0.00 64 1009.8
20260905092402 74 356 2.0 9.0 0.00 0.00 0.00 63 1009.6
20260905090901 74 4 4.0 5.0 0.00 0.00 0.00 62 1009.7
20260905085356 74 6 4.0 9.0 0.00 0.00 0.00 61 1009.7
20260905083852 74 326 4.0 8.0 0.00 0.00 0.00 61 1009.7
20260905082351 75 311 3.0 4.0 0.00 0.00 0.00 60 1009.6
20260905080852 75 27 3.0 7.0 0.00 0.00 0.00 60 1009.5
20260905075351 75 325 3.0 6.0 0.00 0.00 0.00 60 1009.7
20260905073847 76 328 6.0 7.0 0.00 0.00 0.00 58 1009.7
20260905072344 76 34 8.0 9.0 0.00 0.00 0.00 58 1009.7
20260905070842 76 36 8.0 10.0 0.00 0.00 0.00 57 1009.9
20260905065342 76 340 6.0 13.0 0.00 0.00 0.00 57 1009.8
20260905063838 77 333 2.0 6.0 0.00 0.00 0.00 59 1009.8
20260905062336 76 40 2.0 5.0 0.00 0.00 0.00 61 1009.9
20260905060831 77 32 8.0 9.0 0.00 0.00 0.00 60 1009.8
20260905055328 77 347 4.0 4.0 0.00 0.00 0.00 59 1010.1
20260905053823 77 13 4.0 4.0 0.00 0.00 0.00 59 1010.3
20260905052319 78 329 7.0 10.0 0.00 0.00 0.00 58 1010.4
20260905050817 78 355 2.0 7.0 0.00 0.00 0.00 58 1010.6
20260905045315 78 9 0.0 6.0 0.00 0.00 0.00 59 1010.5
20260905043815 78 333 4.0 7.0 0.00 0.00 0.00 59 1010.6
20260905042310 78 305 4.0 12.0 0.00 0.00 0.00 59 1010.4
20260905040808 78 3 5.0 6.0 0.00 0.00 0.00 61 1010.8
20260905035306 78 336 2.0 6.0 0.00 0.01 0.01 61 1010.7
20260905033758 79 347 4.0 7.0 0.00 0.01 0.01 60 1010.5
20260905032255 79 85 4.0 4.0 0.00 0.01 0.01 60 1010.5
20260905030752 79 350 4.0 11.0 0.00 0.01 0.01 60 1010.6
20260905025249 79 40 1.0 11.0 0.00 0.01 0.01 58 1010.5
20260905023747 80 316 2.0 11.0 0.00 0.01 0.01 58 1010.4
20260905022242 80 17 2.0 7.0 0.00 0.01 0.01 59 1010.5
20260905020737 80 4 3.0 6.0 0.00 0.01 0.01 59 1010.5
20260905015232 80 311 4.0 6.0 0.00 0.01 0.01 58 1010.7
20260905013728 80 281 1.0 4.0 0.00 0.01 0.01 58 1010.4
20260905012227 81 2 4.0 4.0 0.00 0.01 0.01 56 1010.7
20260905010725 81 325 2.0 10.0 0.00 0.01 0.01 56 1010.5
20260905005224 82 349 5.0 8.0 0.00 0.01 0.01 56 1010.5
20260905003720 82 33 2.0 6.0 0.00 0.01 0.01 56 1010.5
20260905002217 82 22 5.0 7.0 0.00 0.01 0.01 55 1010.4
20260905000712 82 348 4.0 8.0 0.00 0.01 0.01 55 1010.4
20260904235208 82 303 4.0 4.0 0.00 0.01 0.01 55 1010.1
20260904233706 83 330 2.0 4.0 0.00 0.01 0.01 55 1010.1
20260904232206 83 355 4.0 10.0 0.00 0.01 0.01 55 1009.9
20260904230702 84 319 4.0 8.0 0.00 0.01 0.01 53 1010.0
20260904225202 84 357 4.0 7.0 0.00 0.01 0.01 51 1009.9
20260904223702 84 9 11.0 12.0 0.00 0.01 0.01 51 1009.9
20260904222200 85 12 5.0 9.0 0.00 0.01 0.01 50 1009.8
20260904220701 87 14 7.0 7.0 0.00 0.01 0.01 47 1009.6
20260904215158 89 325 4.0 4.0 0.00 0.01 0.01 46 1009.8
20260904213657 88 329 2.0 7.0 0.00 0.01 0.01 47 1009.6
20260904212155 87 112 4.0 9.0 0.00 0.01 0.01 47 1009.5
20260904210651 88 55 2.0 8.0 0.00 0.01 0.01 46 1009.5
20260904205149 88 83 1.0 11.0 0.00 0.01 0.01 48 1009.7
20260904203649 89 167 1.0 7.0 0.00 0.01 0.01 47 1009.8
20260904202143 88 359 6.0 10.0 0.00 0.01 0.01 48 1009.9
20260904200643 86 270 4.0 12.0 0.00 0.01 0.01 49 1010.0
20260904195143 88 326 5.0 11.0 0.00 0.01 0.01 48 1010.5
20260904193638 88 281 5.0 10.0 0.00 0.01 0.01 48 1010.4
20260904192136 87 329 2.0 11.0 0.00 0.01 0.01 48 1010.5
20260904190637 87 322 3.0 10.0 0.00 0.01 0.01 49 1010.7
20260904185135 87 315 5.0 11.0 0.00 0.01 0.01 49 1010.9
20260904183631 86 3 11.0 16.0 0.00 0.01 0.01 51 1010.8
20260904182127 85 350 2.0 13.0 0.00 0.01 0.01 50 1010.9
20260904180624 86 337 9.0 13.0 0.00 0.01 0.01 49 1011.0
20260904175123 87 305 3.0 12.0 0.00 0.01 0.01 49 1010.9
20260904173621 86 342 5.0 11.0 0.00 0.01 0.01 51 1010.8
20260904172117 87 323 9.0 15.0 0.00 0.01 0.01 50 1010.5
20260904170616 86 348 5.0 11.0 0.00 0.01 0.01 52 1011.1
20260904165115 86 271 1.0 6.0 0.00 0.01 0.01 52 1011.0
20260904163612 86 326 4.0 10.0 0.00 0.01 0.01 53 1011.0
20260904162108 87 3 4.0 11.0 0.00 0.01 0.01 52 1011.1
20260904160606 86 307 15.0 16.0 0.00 0.01 0.01 52 1011.1
20260904155101 85 344 7.0 13.0 0.00 0.01 0.01 54 1011.2
20260904153601 84 349 8.0 17.0 0.00 0.01 0.01 54 1011.7
20260904152100 85 338 12.0 13.0 0.00 0.01 0.01 56 1011.5
20260904150555 85 24 10.0 13.0 0.00 0.01 0.01 57 1011.7
20260904145050 84 287 2.0 6.0 0.00 0.01 0.01 59 1011.6
20260904143549 83 342 9.0 14.0 0.00 0.01 0.01 61 1012.0
20260904142048 84 348 2.0 10.0 0.00 0.01 0.01 62 1011.7
20260904140545 83 44 7.0 11.0 0.00 0.01 0.01 65 1011.5
20260904135041 82 329 4.0 10.0 0.00 0.01 0.01 67 1011.4